Location: Poughquag
(41.6090°N, 73.6820°W)
Time: 17:19:52
(UTC-05:00)

YUBILEINY - Visible Passes

Search period start: 28 November 2023 00:00
Search period end: 08 December 2023 00:00
Orbit: 1478 x 1508 km, 82.5° (Epoch: 28 November)

Date Brightness Start Highest point End Pass type
(mag) Time Alt. Az. Time Alt. Az. Time Alt. Az.
28 Nov ? 20:19:17 10° N 20:20:01 13° N 20:20:01 13° N visible
29 Nov ? 19:30:18 10° N 19:30:54 12° NNE 19:30:54 12° NNE visible
29 Nov ? 21:26:23 10° NNW 21:26:49 12° NNW 21:26:49 12° NNW visible
30 Nov ? 20:36:41 10° N 20:37:43 14° N 20:37:43 14° N visible
01 Dec ? 19:47:21 10° N 19:48:39 15° N 19:48:39 15° N visible
01 Dec ? 21:44:16 10° NNW 21:44:33 11° NNW 21:44:33 11° NNW visible
02 Dec ? 18:58:34 10° NNE 18:59:35 13° NNE 18:59:35 13° NNE visible
02 Dec ? 20:54:15 10° N 20:55:30 15° NNW 20:55:30 15° NNW visible
03 Dec ? 20:04:40 10° N 20:06:29 18° N 20:06:29 18° N visible
04 Dec ? 19:15:28 10° N 19:17:30 17° NNE 19:17:30 17° NNE visible
04 Dec ? 21:12:02 10° NNW 21:13:25 16° NNW 21:13:25 16° NNW visible
05 Dec ? 18:26:56 10° NNE 18:28:32 14° NNE 18:28:32 14° NNE visible
05 Dec ? 20:22:10 10° N 20:24:27 21° N 20:24:27 21° N visible
06 Dec ? 19:32:41 10° N 19:35:33 23° N 19:35:33 23° N visible
06 Dec ? 21:30:04 10° NNW 21:31:29 15° NNW 21:31:29 15° NNW visible
07 Dec ? 18:43:38 10° N 18:46:42 20° NNE 18:46:42 20° NNE visible
07 Dec ? 20:39:51 10° NNW 20:42:38 23° NNW 20:42:38 23° NNW visible
